Snowfall_Accumulation
0.0 0.0 0.0 0.0 0.0 0.0 0.0 0.0 0.0 0.0 0.0 0.0 0.0 0.0 0.0 0.0 0.0 0.0 0.0 0.0 0.0 0.0 0.0 0.0 0.0 0.0 0.0 0.0 0.0 0.0 0.0 0.0 0.0 0.0 0.0 0.0 0.0 0.0 0.0 0.0 0.0 0.0 0.0
0.0 0.0 0.0 0.0 0.0 0.0 0.0 0.0 0.0 0.0 0.0 0.0 0.0 0.0 0.0 0.0 0.0 0.0 0.0 0.0 0.0 0.0 0.0 0.0 0.0 0.0 0.0 0.0 0.0 0.0 0.0 0.0 0.0 0.0 0.0 0.0 0.0 0.0 0.0 0.0 0.0 0.0 0.0
0.0 0.0 0.0 0.0 0.0 0.0 0.0 0.0 0.0 0.0 0.0 0.0 0.0 0.0 0.0 0.0 0.0 0.0 0.0 0.0 0.0 0.0 0.0 0.0 0.0 0.0 0.0 0.0 0.0 0.0 0.0 0.0 0.0 0.0 0.0 0.0 0.0 0.0 0.0 0.0 0.0 0.0 0.0
0.0 0.0 0.0 0.0 0.0 0.0 0.0 0.0 0.0 0.0 0.0 0.0 0.0 0.0 0.0 0.0 0.0 0.0 0.0 0.0 0.0 0.0 0.0 0.0 0.0 0.0 0.0 0.0 0.0 0.0 0.0 0.0 0.0 0.0 0.0 0.0 0.0 0.0 0.0 0.0 0.0 0.0 0.0
0.0 0.0 0.0 0.0 0.0 0.0 0.0 0.0 0.0 0.0 0.0 0.0 0.0 0.0 0.0 0.0 0.0 0.0 0.0 0.0 0.0 0.0 0.0 0.0 0.0 0.0 0.0 0.0 0.0 0.0 0.0 0.0 0.0 0.0 0.0 0.0 0.0 0.0 0.0 0.0 0.0 0.0 0.0
0.0 0.0 0.0 0.0 0.0 0.0 0.0 0.0 0.0 0.0 0.0 0.0 0.0 0.0 0.0 0.0 0.0 0.0 0.0 0.0 0.0 0.0 0.0 0.0 0.0 0.0 0.0 0.0 0.0 0.0 0.0 0.0 0.0 0.0 0.0 0.0 0.0 0.0 0.1 0.1 0.0 0.0 0.0
0.0 0.0 0.0 0.0 0.0 0.0 0.0 0.0 0.0 0.0 0.0 0.0 0.0 0.0 0.0 0.0 0.0 0.0 0.0 0.0 0.0 0.0 0.0 0.0 0.0 0.0 0.0 0.0 0.0 0.0 0.0 0.0 0.0 0.0 0.0 0.0 0.0 0.0 0.5 0.7 0.1 0.1 0.0
0.0 0.0 0.0 0.0 0.0 0.0 0.0 0.0 0.0 0.0 0.0 0.0 0.0 0.0 0.0 0.0 0.0 0.0 0.0 0.0 0.0 0.0 0.0 0.0 0.0 0.0 0.0 0.0 0.0 0.0 0.0 0.0 0.0 0.0 0.0 0.8 0.6 0.0 0.0 0.6 1.7 1.9 0.0
0.0 0.0 0.0 0.0 0.0 0.2 0.0 0.0 0.0 0.0 0.0 0.0 0.0 0.0 0.0 0.0 0.0 0.0 0.0 0.0 0.0 0.0 0.0 0.0 0.0 0.0 0.0 0.0 0.0 0.0 0.0 0.0 0.0 0.0 0.0 0.0 0.0 0.0 0.0 0.1 0.1 2.1 3.2
0.0 0.0 0.0 0.0 0.0 0.3 0.4 0.0 0.0 0.0 0.0 0.0 0.0 0.0 0.0 0.0 0.0 0.0 0.0 0.0 0.0 0.0 0.0 0.0 0.0 0.0 0.0 0.0 0.0 0.0 0.0 0.0 0.0 0.0 0.0 0.0 0.0 0.0 0.0 0.1 0.0 0.2 0.8
0.5 0.7 1.3 0.9 0.4 0.0 0.4 0.3 0.1 0.0 0.3 0.3 0.0 0.0 0.0 0.0 0.0 0.0 0.0 0.0 0.0 0.0 0.0 0.0 0.0 0.0 0.0 0.0 0.0 0.0 0.0 0.0 0.0 0.0 0.0 0.0 0.0 0.0 0.1 0.0 0.0 0.1 0.3
0.6 1.2 2.0 3.4 4.1 3.1 0.9 0.9 0.3 0.2 0.3 0.6 0.0 0.0 0.0 0.0 0.2 0.0 0.0 0.0 0.0 0.0 0.0 0.0 0.0 0.0 0.1 0.1 0.2 0.2 0.1 0.1 0.1 0.1 0.0 0.0 0.0 0.0 0.0 0.0 0.1 0.3 0.1
1.5 1.6 3.2 9.0 10.0 7.4 5.1 2.8 1.8 0.8 0.3 0.3 0.0 0.0 0.0 0.7 0.3 0.4 0.4 0.2 0.3 0.1 0.2 0.2 0.3 0.3 0.2 0.6 0.9 0.7 0.0 0.4 0.6 0.4 0.3 0.1 0.2 0.2 0.2 0.3 0.4 0.2 0.1
0.3 0.7 4.1 7.7 9.8 7.5 6.4 4.0 3.0 2.1 0.8 0.5 0.2 0.3 0.4 0.6 1.0 1.3 0.6 0.6 0.7 0.4 0.3 0.4 0.5 0.4 0.5 1.8 1.5 1.7 1.3 1.3 1.6 1.6 1.3 0.9 0.7 0.7 1.5 0.3 0.4 0.2 0.3
0.3 0.0 0.8 1.2 0.6 1.9 1.1 1.4 1.0 0.5 0.6 0.2 0.3 0.3 0.0 0.1 0.2 0.2 0.5 1.0 0.8 0.5 0.4 0.8 0.7 0.9 1.2 2.0 3.6 3.6 3.6 2.9 4.4 3.9 2.9 3.0 2.8 1.5 2.1 2.9 2.3 0.8 1.1
0.0 0.0 0.0 0.0 0.0 0.2 0.2 0.1 0.3 0.1 0.0 0.1 0.0 0.1 0.0 0.0 0.1 0.1 0.1 0.1 0.8 0.8 0.7 0.5 0.4 1.1 1.7 2.5 3.0 4.3 5.4 4.5 3.1 4.1 4.7 3.6 3.6 2.5 2.9 2.4 2.6 3.2 2.6
0.0 0.0 0.0 0.0 0.0 0.0 0.0 0.1 0.0 0.0 0.0 0.0 0.0 0.0 0.0 0.0 0.0 0.0 0.0 0.1 0.0 0.1 1.2 1.2 1.0 0.5 0.5 1.6 1.9 2.4 4.9 6.7 6.8 5.3 4.3 4.0 4.6 4.1 3.2 3.4 3.3 2.8 3.1
0.0 0.0 0.0 0.0 0.0 0.0 0.0 0.0 0.0 0.0 0.0 0.0 0.0 0.0 0.0 0.0 0.3 0.9 1.2 1.3 1.1 0.7 0.4 1.0 1.4 1.8 2.1 1.8 1.4 1.6 1.5 2.8 5.6 5.8 4.9 4.2 4.3 4.5 4.6 6.0 8.5 9.4 7.8
0.0 0.0 0.0 0.0 0.0 0.0 0.0 0.0 0.0 0.0 0.0 0.0 0.5 0.6 0.4 0.6 2.5 2.9 2.9 2.5 1.9 2.4 2.2 2.6 3.3 2.8 2.7 2.3 2.0 1.2 1.4 1.7 1.5 1.8 3.7 4.2 3.9 6.5 6.7 11.8 13.3 12.3 9.5
0.0 0.0 0.0 0.0 0.0 0.0 0.0 0.0 0.0 0.4 0.0 2.0 2.4 0.8 3.0 3.4 4.0 3.6 3.4 3.2 2.7 3.3 3.0 3.9 2.9 1.9 3.0 2.4 1.8 1.4 2.0 3.2 1.3 0.9 1.8 4.1 5.5 5.7 6.7 11.1 12.7 14.8 11.8
0.0 0.0 0.0 0.0 0.0 0.0 0.0 0.0 0.2 0.1 1.9 2.2 4.2 4.4 5.3 5.3 4.5 4.9 4.3 3.8 4.3 3.7 4.0 3.6 2.7 2.5 2.6 2.9 1.9 1.4 2.6 3.6 6.5 4.2 5.5 4.2 4.5 8.0 5.7 6.1 9.1 11.6 7.5
0.0 0.0 0.0 0.0 0.0 0.0 0.0 0.1 0.1 2.0 2.8 4.3 4.9 4.7 4.1 4.6 4.3 3.9 4.7 3.9 3.2 3.7 3.6 3.5 4.1 3.9 3.6 2.8 3.1 2.8 2.6 2.9 6.8 10.0 8.7 8.5 8.1 6.4 5.7 5.6 8.0 7.2 6.5
0.0 0.0 0.0 0.0 0.0 0.0 0.0 0.1 0.5 1.4 2.8 3.6 2.7 4.0 3.2 2.9 2.6 3.4 4.3 4.2 3.5 4.0 4.8 4.7 4.6 4.7 5.4 6.2 6.3 4.9 3.2 3.3 6.9 8.4 9.4 9.3 7.8 6.5 7.6 6.6 6.7 7.2 9.8
0.0 0.0 0.0 0.0 0.0 0.0 0.0 0.3 1.1 3.1 4.0 4.5 5.6 4.8 4.4 4.7 4.2 3.9 3.6 3.6 4.7 5.0 5.1 6.8 7.8 8.5 7.7 6.9 6.2 7.3 7.6 7.5 7.5 8.8 9.8 10.6 9.5 8.6 9.1 9.6 8.0 9.4 9.6
0.0 0.0 0.1 0.0 0.0 0.0 0.5 0.7 1.7 2.2 2.8 2.8 3.1 4.6 3.9 3.6 3.0 2.7 3.0 3.1 4.4 4.7 7.3 7.6 8.9 11.9 11.5 12.9 14.5 13.4 13.7 12.0 11.2 12.2 13.5 13.0 9.7 8.8 6.5 5.5 5.1 5.4 5.4
0.0 0.0 0.0 0.1 0.2 0.2 0.6 1.3 1.1 0.6 0.9 2.6 3.4 6.5 4.5 10.4 8.1 8.0 10.5 8.5 7.5 7.3 10.9 13.8 15.3 16.6 15.9 16.1 14.4 13.3 12.1 12.7 10.8 11.6 9.8 8.8 7.8 7.6 7.2 7.9 8.4 6.0 4.8